Location: Unspecified
(0.0000°N, 0.0000°E)
Time: 09:28:08
(UTC+00:00)

ACS3 Solar Sail - Visible Passes

Search period start: 13 November 2025 00:00
Search period end: 23 November 2025 00:00
Orbit: 910 x 992 km, 97.3° (Epoch: 12 November)

Date Brightness Start Highest point End Pass type
(mag) Time Alt. Az. Time Alt. Az. Time Alt. Az.
14 Nov 4.3 02:29:26 13° SSE 02:29:26 13° SSE 02:30:03 10° SSE visible
15 Nov 4.1 02:47:18 14° S 02:47:18 14° S 02:48:08 10° S visible
16 Nov 4.0 03:05:07 14° S 03:05:07 14° S 03:05:53 10° S visible
17 Nov 4.0 03:22:52 12° SSW 03:22:52 12° SSW 03:23:16 10° SSW visible
19 Nov 4.5 02:14:06 10° SSE 02:14:06 10° SSE 02:14:12 10° SSE visible
20 Nov 4.3 02:31:42 12° SSE 02:31:42 12° SSE 02:32:14 10° SSE visible
21 Nov 4.1 02:49:14 13° S 02:49:14 13° S 02:49:50 10° S visible
22 Nov 4.1 03:06:42 12° SSW 03:06:42 12° SSW 03:07:08 10° SSW visible
